OBJECT D, 62300

Orbit data source: Space-Track

You're viewing an Uncataloged Satellite

Recently launched and/or uncataloged satellites may have evolving metadata. Metadata may include but not limited to: Owner, Maufacturer, Bus, Motor, and Mission.

OBJECT D, 62300 is a satellite owned by CNSA (CN) in LEO that was launched on Thu, 29 Apr 2021 UTC via an FALCON 9 launch vehicle from the Wenchang Satellite Launch Center (WSC). Unknown objects in Earth's orbit typically refer to objects detected orbiting the Earth but have not yet been identified or cataloged. These objects could be anything from previously untracked satellites, spent rocket stages, debris from satellite collisions, or even natural meteoroids temporarily captured by Earth's gravity.

Loading next visibility...
OBJECT D details
Identifier
62300, 2021-035D
Orbit
LEO
Last TLE update15 hours ago
Origin
Flag of CNCNSA (CN / PRC)
ManufacturerCAST?
MissionSpacecraft
Bus & MotorUnknown
Mass1 kg wet, 1 kg dry
Launch date (UTC)
2021-04-29 (4 years ago)
Launch vehicle
FALCON 9
Launch site
Wenchang Satellite Launch Center (WSC)
Object typeUnknown
Shape & HBRUnknown
Radar Cross SectionSmall (<0.1 m²)

Expand to show TLE details & history

TLE from 15 hours ago
0 OBJECT D
1 62300U 21035D   24356.46037790  .00040166  00000-0  45327-3 0  9999
2 62300  41.4690  21.7086 0002529 250.2204 109.8363 15.61730647  1454
Epoch: 2024-12-21T11:02Z
Definitive object data (Epoch: 2024-12-21T11:02:56.65Z)
Latitude0.00001°
Longitude125.46135°
Altitude382.838 km
Speed7.682 km/s
True Right ascension01h 26m 50s
True Declination0° 00' 00"
Sunlit
Object was in full shadow at TLE epoch
Visualization TLE readout
Latitude9.67774°
Longitude-69.28902°
Altitude381.358 km
Speed7.684 km/s
Apparent Right ascension12h 32m 06s
Apparent Declination-14° 16' 37"
Sunlit
Object is in daylight
Visualization observer readout
Local Sidereal Time00:37:55
Azimuth3.256° NNE
Elevation-64.329°
Doppler factor1
Orbital elements
Apogee altitude386.602 km
Perigee altitude383.181 km
Semi-major axis6,763.029 km
Eccentricity0.0002529
Inclination41.469°
RAAN21.7086°
Arg. of periapsis250.2204°
True anomaly109.86356°
Mean anomaly109.8363°
Eccentric anomaly109.84993°
Mean motion3.9024 °/min
BSTAR0.00045327
Orbital period92.25 mins
Loading maneuver chart data...
Loading historical data...
Loading historical data...
Loading historical data...
Loading historical data...
Loading historical data...
Loading historical data...
Loading historical data...
Other satellites on launch #35 in the year 2021 (2021-04-29 UTC)

OBJECT D Visibility forecast

Observer location: undefined°, undefined

Span
Click to sort rows by Start time (UTC) header in descending order
Start Az.
Max El. time (UTC)
Max El. Az.
Max El.
End time (UTC)
End Az.
5 mins2024-12-22 05:41:58.314Z224.387° SW2024-12-22 05:43:58.314Z176.964° S32.355°2024-12-22 05:46:58.314Z86.755° E
5 mins2024-12-22 07:18:58.314Z271.205° WNW2024-12-22 07:20:58.314Z337.445° NNW43.093°2024-12-22 07:23:58.314Z77.393° E
5 mins2024-12-22 08:55:58.314Z284.947° WNW2024-12-22 08:57:58.314Z8.784° NNE44.389°2024-12-22 09:00:58.314Z97.211° ESE
4 mins2024-12-22 10:32:58.314Z257.341° W2024-12-22 10:34:58.314Z191.841° SSW26.846°2024-12-22 10:36:58.314Z145.879° SSE
|